This is the latest recevied weather packets stored in our database for station/object KD7CIH. If no packets are shown the sender has not sent any weather packets the latest 10 day(s).
| Time | Temp. | Humidity | Pressure | Rain* | Wind** | Luminosity | Snow |
|---|---|---|---|---|---|---|---|
| 1777237713 | 10° C | 55% | 995.8 hPa | 0 mm | - | - | - |
| 1777237413 | 10° C | 54% | 995.6 hPa | 0 mm | - | - | - |
| 1777237114 | 10.56° C | 54% | 995.5 hPa | 0 mm | - | - | - |
| 1777236817 | 10.56° C | 53% | 995.5 hPa | 0 mm | - | - | - |
| 1777236640 | 10.56° C | 53% | 995.5 hPa | 0 mm | - | - | - |
| 1777236214 | 10.56° C | 56% | 995.5 hPa | 0 mm | - | - | - |
| 1777235915 | 10° C | 56% | 995.5 hPa | 0 mm | - | - | - |
| 1777235614 | 10° C | 57% | 995.6 hPa | 0 mm | - | - | - |
| 1777235440 | 10° C | 54% | 995.6 hPa | 0 mm | - | - | - |
| 1777235015 | 10.56° C | 55% | 995.8 hPa | 0 mm | - | - | - |
| 1777234714 | 10.56° C | 58% | 995.5 hPa | 0 mm | - | - | - |
| 1777234413 | 10.56° C | 59% | 995.6 hPa | 0 mm | - | - | - |
| 1777234244 | 10° C | 60% | 995.6 hPa | 0 mm | - | - | - |
| 1777233815 | 9.44° C | 62% | 995.6 hPa | 0 mm | - | - | - |
| 1777233515 | 8.89° C | 65% | 995.6 hPa | 0 mm | - | - | - |
| 1777233215 | 8.89° C | 65% | 995.5 hPa | 0 mm | - | - | - |
| 1777233044 | 9.44° C | 63% | 995.6 hPa | 0 mm | - | - | - |
| 1777232615 | 9.44° C | 65% | 995.6 hPa | 0 mm | - | - | - |
| 1777232314 | 9.44° C | 65% | 995.8 hPa | 0 mm | - | - | - |
| 1777232013 | 8.89° C | 69% | 996 hPa | 0 mm | - | - | - |
| 1777231715 | 8.89° C | 66% | 995.9 hPa | 0 mm | - | - | - |
| 1777231410 | 8.89° C | 69% | 996 hPa | 0 mm | - | - | - |
| 1777231231 | 8.89° C | 68% | 996 hPa | 0 mm | - | - | - |
| 1777230926 | 8.89° C | 71% | 996.1 hPa | 0 mm | - | - | - |
| 1777230492 | 8.33° C | 72% | 996 hPa | 0 mm | - | - | - |
* Rain latest hour (hover to see other rain measurements)
** Current wind speed in m/s (hover to see current wind gust speed)